Location: Unspecified
(0.0000°N, 0.0000°E)
Time: 20:14:44
(UTC+00:00)

Transit 4A - Pass Details

Date: 28 May 2022
Orbit: 864 x 980 km, 66.8° (Epoch: 26 June)

Event Time Altitude Azimuth Distance (km) Brightness Sun altitude
Rises 13:11:46 0° 350° (N) 3,540 11.3 61.8°
Reaches altitude 10° 13:14:23 10° 356° (N) 2,582 10.7 61.4°
Maximum altitude 13:20:09 50° 70° (ENE) 1,114 8.9 60.5°
Drops below altitude 10° 13:25:47 10° 145° (SE) 2,526 10.0 59.5°
Sets 13:28:18 0° 150° (SSE) 3,455 10.6 59.1°
